"Pseudo-MPEC" for CARDH82

Created 2024 Sep 11 2:22:05 UT using Find_Orb

Click here for an explanation of pseudo-MPECs

 
 Astrometry: 
     CARDH82*1C2024 09 05.35993201 51 25.891+28 58 40.51   ~959M 21.09GVNEOCPG96
     CARDH82 1C2024 09 05.36515001 51 24.822+28 58 53.65   ~959M 21.41GVNEOCPG96
     CARDH82 1C2024 09 05.37037201 51 23.843+28 59 04.63   ~959M 21.57GVNEOCPG96
     CARDH82 1C2024 09 05.37559301 51 22.910+28 59 17.16   ~959M 22.54GVNEOCPG96

Station data:
(G96) Mt. Lemmon Survey  (N32.442729 W110.788720)  US/Arizona.  Observer E.
   J. Christensen. 1.5-m reflector + 10K CCD.

Orbital elements:  CARDH82
   Perihelion 2024 May 12.14632 +/- 116 TT =  3:30:42 (JD 2460442.64632)
Epoch 2024 Sep  5.0 TT = JDT 2460558.5   Earth MOID: 0.1760   Ma: 0.0610
M  60.65349263 +/- 110              (J2000 ecliptic)             AutoNEOCP
n   0.52353532 +/- 0.534            Peri.  262.88106 +/- 80
a   1.52465666 +/- 1.04             Node   353.13810 +/- 60
e   0.4088361 +/- 0.244             Incl.   37.18920 +/- 38
P   1.883/687.620d         H 20.70  G  0.15   U 12.3  SR
q 0.90132183 +/- 0.568    Q 2.14799150 +/- 8.07
From 4 observations 2024 Sept. 5 (22.6 min); mean residual 0".45
Residuals in arcseconds: 
240905 G96  .48+  .34-    240905 G96  .36-  .41-    
240905 G96  .54-  .71+    240905 G96  .42+  .03+    

Ephemerides (geocentric):
Date (UTC) HH   RA             Dec           delta  r     elong  mag " sig PA
---- --------  ------------   ------------  ------ ------ -----  --- --------
2024 09 11 02  01 32 09.768   +32 26 00.95  .62558 1.4946 131.2 21.9  36d 109
2024 09 11 03  01 32 00.668   +32 27 25.16  .62560 1.4948 131.2 21.9  36d 109
2024 09 11 04  01 31 51.558   +32 28 49.25  .62561 1.4951 131.2 21.9  36d 109
2024 09 11 05  01 31 42.440   +32 30 13.24  .62563 1.4953 131.3 21.9  36d 109
2024 09 11 06  01 31 33.312   +32 31 37.13  .62565 1.4955 131.3 21.9  37d 109
2024 09 11 07  01 31 24.175   +32 33 00.91  .62567 1.4958 131.4 21.9  37d 109
2024 09 11 08  01 31 15.029   +32 34 24.59  .62569 1.4960 131.4 21.9  37d 109
2024 09 11 09  01 31 05.874   +32 35 48.16  .62570 1.4963 131.5 21.9  37d 109
2024 09 11 10  01 30 56.709   +32 37 11.62  .62572 1.4965 131.5 21.9  37d 109
2024 09 11 11  01 30 47.536   +32 38 34.97  .62574 1.4968 131.5 21.9  37d 109
2024 09 11 12  01 30 38.353   +32 39 58.22  .62576 1.4970 131.6 21.9  37d 109
2024 09 11 13  01 30 29.162   +32 41 21.37  .62578 1.4972 131.6 21.9  38d 109
2024 09 11 14  01 30 19.961   +32 42 44.40  .62580 1.4975 131.7 21.9  38d 109
2024 09 11 15  01 30 10.751   +32 44 07.33  .62583 1.4977 131.7 21.9  38d 109
2024 09 11 16  01 30 01.532   +32 45 30.14  .62585 1.4980 131.8 21.9  38d 109
2024 09 11 17  01 29 52.304   +32 46 52.86  .62587 1.4982 131.8 21.9  38d 109
2024 09 11 18  01 29 43.068   +32 48 15.46  .62589 1.4984 131.8 21.9  38d 109
2024 09 11 19  01 29 33.822   +32 49 37.95  .62592 1.4987 131.9 21.9  39d 109
2024 09 11 20  01 29 24.567   +32 51 00.33  .62594 1.4989 131.9 21.9  39d 109
2024 09 11 21  01 29 15.304   +32 52 22.61  .62596 1.4992 132.0 21.9  39d 109
2024 09 11 22  01 29 06.031   +32 53 44.77  .62599 1.4994 132.0 21.9  39d 109
2024 09 11 23  01 28 56.750   +32 55 06.83  .62601 1.4996 132.1 21.9  39d 109
2024 09 12 00  01 28 47.459   +32 56 28.77  .62604 1.4999 132.1 21.9  39d 109
2024 09 12 01  01 28 38.160   +32 57 50.61  .62607 1.5001 132.1 21.9  39d 109
2024 09 12 02  01 28 28.852   +32 59 12.33  .62609 1.5004 132.2 21.9  40d 109
2024 09 12 03  01 28 19.535   +33 00 33.94  .62612 1.5006 132.2 21.9  40d 109
2024 09 12 04  01 28 10.210   +33 01 55.45  .62615 1.5009 132.3 21.9  40d 109
2024 09 12 05  01 28 00.875   +33 03 16.84  .62617 1.5011 132.3 21.9  40d 109
2024 09 12 06  01 27 51.532   +33 04 38.12  .62620 1.5013 132.3 21.9  40d 109
2024 09 12 07  01 27 42.180   +33 05 59.28  .62623 1.5016 132.4 21.9  40d 109
2024 09 12 08  01 27 32.820   +33 07 20.34  .62626 1.5018 132.4 21.9  41d 109
2024 09 12 09  01 27 23.451   +33 08 41.28  .62629 1.5021 132.5 21.9  41d 109
2024 09 12 10  01 27 14.073   +33 10 02.11  .62632 1.5023 132.5 21.9  41d 109
2024 09 12 11  01 27 04.686   +33 11 22.83  .62635 1.5025 132.6 21.9  41d 109
2024 09 12 12  01 26 55.291   +33 12 43.43  .62638 1.5028 132.6 21.9  41d 109
2024 09 12 13  01 26 45.887   +33 14 03.92  .62641 1.5030 132.6 21.9  41d 109
2024 09 12 14  01 26 36.475   +33 15 24.30  .62644 1.5033 132.7 21.9  42d 109
2024 09 12 15  01 26 27.054   +33 16 44.56  .62648 1.5035 132.7 21.8  42d 109
2024 09 12 16  01 26 17.625   +33 18 04.71  .62651 1.5037 132.8 21.8  42d 109
2024 09 12 17  01 26 08.187   +33 19 24.74  .62654 1.5040 132.8 21.8  42d 109
2024 09 12 18  01 25 58.740   +33 20 44.66  .62658 1.5042 132.8 21.8  42d 109
2024 09 12 19  01 25 49.286   +33 22 04.46  .62661 1.5045 132.9 21.8  42d 110
2024 09 12 20  01 25 39.822   +33 23 24.15  .62664 1.5047 132.9 21.8  42d 110
2024 09 12 21  01 25 30.350   +33 24 43.72  .62668 1.5049 133.0 21.8  43d 110
2024 09 12 22  01 25 20.870   +33 26 03.18  .62671 1.5052 133.0 21.8  43d 110
2024 09 12 23  01 25 11.382   +33 27 22.52  .62675 1.5054 133.1 21.8  43d 110
2024 09 13 00  01 25 01.885   +33 28 41.75  .62679 1.5057 133.1 21.8  43d 110
2024 09 13 01  01 24 52.380   +33 30 00.86  .62682 1.5059 133.1 21.8  43d 110